Washington County, Texas, United States
Lat: 30.22N, Lon: 96.44W
Wx Zone: TXZ197
Local Info
Past Weather Observations for Today

NOTE: This archive is for the closest National Weather Service station to Washington County. Information may differ from the station used for current weather conditions.

Click here for Long-term Archive

Time Weather Temperature Dewpoint Humidity Pressure Winds Precip Visibility
13:55
Clear
90°F / 32°C 72°F / 22°C 55% 29.92 in
(1013 mb)
ENE 4.6 mph
(ENE 7 kph)
- 10SM
13:35
Clear
91°F / 33°C 72°F / 22°C 52% 29.95 in
(1014 mb)
Calm - 10SM
13:15
Partly Cloudy
90°F / 32°C 70°F / 21°C 52% 29.95 in
(1014 mb)
NE 3.5 mph
(NE 6 kph)
- 10SM
12:55
Partly Cloudy
90°F / 32°C 72°F / 22°C 55% 29.95 in
(1014 mb)
NE 5.8 mph
(NE 9 kph)
- 10SM
12:35
Partly Cloudy
90°F / 32°C 72°F / 22°C 55% 29.95 in
(1014 mb)
N 4.6 mph
(N 7 kph)
- 10SM
12:15
Clear
90°F / 32°C 72°F / 22°C 55% 29.95 in
(1014 mb)
Calm - 10SM
11:55
Partly Cloudy
88°F / 31°C 72°F / 22°C 59% 29.95 in
(1014 mb)
Calm - 10SM
11:35
Partly Cloudy
86°F / 30°C 72°F / 22°C 62% 29.98 in
(1015 mb)
Calm - 10SM
11:15
Partly Cloudy
86°F / 30°C 72°F / 22°C 62% 29.98 in
(1015 mb)
NE 4.6 mph
(NE 7 kph)
- 10SM
10:55
Partly Cloudy
86°F / 30°C 73°F / 23°C 66% 29.98 in
(1015 mb)
N 5.8 mph
(N 9 kph)
- 10SM
10:35
Partly Cloudy
84°F / 29°C 73°F / 23°C 70% 29.98 in
(1015 mb)
N 6.9 mph
(N 11 kph)
- 10SM
10:15
Mostly Cloudy
84°F / 29°C 73°F / 23°C 70% 29.98 in
(1015 mb)
Calm - 10SM
09:55
Mostly Cloudy
82°F / 28°C 73°F / 23°C 74% 29.98 in
(1015 mb)
NNW 3.5 mph
(NNW 6 kph)
- 10SM
09:35
Mostly Cloudy
82°F / 28°C 73°F / 23°C 74% 29.98 in
(1015 mb)
Calm - 10SM
09:15
Overcast
79°F / 26°C 73°F / 23°C 84% 29.98 in
(1015 mb)
Calm - 10SM
08:55
Overcast
79°F / 26°C 73°F / 23°C 84% 29.98 in
(1015 mb)
Calm - 10SM
08:35
Overcast
79°F / 26°C 75°F / 24°C 89% 29.98 in
(1015 mb)
Calm - 10SM
08:15
Overcast
77°F / 25°C 75°F / 24°C 94% 29.95 in
(1014 mb)
Calm - 10SM
07:55
Mostly Cloudy
77°F / 25°C 75°F / 24°C 94% 29.95 in
(1014 mb)
Calm - 10SM
07:35
Partly Cloudy
77°F / 25°C 75°F / 24°C 94% 29.98 in
(1015 mb)
Calm - 10SM
07:15
Clear
75°F / 24°C 73°F / 23°C 94% 29.98 in
(1015 mb)
Calm - 10SM
06:55
Clear
75°F / 24°C 73°F / 23°C 94% 29.95 in
(1014 mb)
Calm - 10SM
06:35
Mostly Cloudy
75°F / 24°C 73°F / 23°C 94% 29.95 in
(1014 mb)
Calm - 10SM
06:15
Mostly Cloudy
75°F / 24°C 73°F / 23°C 94% 29.95 in
(1014 mb)
Calm - 10SM
05:55
Mostly Cloudy
75°F / 24°C 73°F / 23°C 94% 29.95 in
(1014 mb)
Calm - 10SM
05:35
Overcast
75°F / 24°C 73°F / 23°C 94% 29.95 in
(1014 mb)
Calm - 10SM
05:15
Overcast
75°F / 24°C 73°F / 23°C 94% 29.92 in
(1013 mb)
Calm - 10SM
04:55
Overcast
75°F / 24°C 73°F / 23°C 94% 29.92 in
(1013 mb)
Calm - 10SM
04:35
Overcast
75°F / 24°C 73°F / 23°C 94% 29.92 in
(1013 mb)
Calm - 10SM
04:15
Overcast
75°F / 24°C 73°F / 23°C 94% 29.92 in
(1013 mb)
N 3.5 mph
(N 6 kph)
- 10SM
03:55
Mostly Cloudy
75°F / 24°C 73°F / 23°C 94% 29.92 in
(1013 mb)
Calm - 10SM
03:35
Overcast
75°F / 24°C 73°F / 23°C 94% 29.92 in
(1013 mb)
Calm - 10SM
03:15
Overcast
75°F / 24°C 73°F / 23°C 94% 29.95 in
(1014 mb)
Calm - 10SM
02:55
Mostly Cloudy
75°F / 24°C 73°F / 23°C 94% 29.92 in
(1013 mb)
Calm - 10SM
02:35
Partly Cloudy
75°F / 24°C 73°F / 23°C 94% 29.92 in
(1013 mb)
Calm - 10SM
02:15
Clear
75°F / 24°C 73°F / 23°C 94% 29.92 in
(1013 mb)
Calm - 10SM
01:55
Clear
75°F / 24°C 72°F / 22°C 89% 29.92 in
(1013 mb)
Calm - 10SM
01:35
Clear
75°F / 24°C 72°F / 22°C 89% 29.92 in
(1013 mb)
Calm - 10SM
01:15
Clear
75°F / 24°C 72°F / 22°C 89% 29.92 in
(1013 mb)
Calm - 10SM
00:55
Clear
75°F / 24°C 73°F / 23°C 94% 29.92 in
(1013 mb)
E 4.6 mph
(E 7 kph)
- 10SM
00:35
Clear
75°F / 24°C 73°F / 23°C 94% 29.92 in
(1013 mb)
E 4.6 mph
(E 7 kph)
- 10SM
00:15
Clear
75°F / 24°C 73°F / 23°C 94% 29.92 in
(1013 mb)
Calm - 10SM
Time Weather Temperature Dewpoint Humidity Pressure Winds Precip Visibility


Weather for websites

WeatherForYou.com, LLC is not responsible for any damages or problems caused by this service. Current weather conditions are obtained from the closest station including government and personal stations which may have varying degrees of accuracy. Weather forecasts are derived from the NOAA NDFD. Like all things, this site belongs to Jesus Christ... He just trusts me to maintain it. If you have any questions or comments email webmaster@weatherforyou.com

Copyright © 2014, WeatherForYou.com LLC. All rights reserved.